This is the latest recevied weather packets stored in our database for station/object N1MCJ. If no packets are shown the sender has not sent any weather packets the latest 10 day(s).
| Time | Temp. | Humidity | Pressure | Rain* | Wind** | Luminosity | Snow |
|---|---|---|---|---|---|---|---|
| 1777555932 | 8.89° C | 99% | 998.9 hPa | 0 mm | - | 25 W/m² | - |
| 1777555033 | 8.89° C | 99% | 998.8 hPa | 0 mm | - | 19 W/m² | - |
| 1777554129 | 8.89° C | 99% | 998.9 hPa | 0 mm | - | 22 W/m² | - |
| 1777553230 | 8.89° C | 99% | 999 hPa | 0 mm | - | 26 W/m² | - |
| 1777552324 | 8.33° C | 99% | 999 hPa | 0 mm | - | 19 W/m² | - |
| 1777551421 | 8.89° C | 99% | 999.1 hPa | 1.78 mm | - | 13 W/m² | - |
| 1777550517 | 8.33° C | 99% | 999.3 hPa | 7.11 mm | - | 16 W/m² | - |
| 1777549611 | 8.89° C | 99% | 999.3 hPa | 1.78 mm | - | 17 W/m² | - |
| 1777548706 | 8.33° C | 99% | 999.3 hPa | 4.32 mm | - | 17 W/m² | - |
| 1777547802 | 8.33° C | 99% | 999.5 hPa | 0 mm | - | 11 W/m² | - |
| 1777546899 | 8.33° C | 99% | 999.3 hPa | 1.27 mm | - | 6 W/m² | - |
| 1777545996 | 8.33° C | 99% | 999.4 hPa | 0 mm | - | 3 W/m² | - |
| 1777545092 | 8.33° C | 99% | 999.1 hPa | 1.27 mm | - | 1 W/m² | - |
| 1777544193 | 8.33° C | 99% | 999 hPa | 0 mm | - | 0 W/m² | - |
| 1777543288 | 8.33° C | 99% | 999 hPa | 0 mm | - | 0 W/m² | - |
| 1777542383 | 8.33° C | 99% | 998.8 hPa | 0 mm | - | 0 W/m² | - |
| 1777541480 | 8.33° C | 99% | 998.9 hPa | 0 mm | - | 0 W/m² | - |
| 1777540576 | 8.33° C | 99% | 999 hPa | 1.78 mm | - | 0 W/m² | - |
| 1777539676 | 8.33° C | 99% | 999.2 hPa | 0 mm | - | 0 W/m² | - |
| 1777538777 | 8.33° C | 99% | 999 hPa | 0 mm | - | 0 W/m² | - |
| 1777537875 | 8.33° C | 99% | 999.3 hPa | 1.27 mm | - | 0 W/m² | - |
| 1777536975 | 8.33° C | 99% | 999.5 hPa | 3.05 mm | - | 0 W/m² | - |
| 1777536072 | 8.33° C | 99% | 999.5 hPa | 1.78 mm | - | 0 W/m² | - |
| 1777535167 | 8.33° C | 99% | 999.8 hPa | 0 mm | - | 0 W/m² | - |
| 1777534263 | 8.33° C | 99% | 999.7 hPa | 0 mm | - | 0 W/m² | - |
* Rain latest hour (hover to see other rain measurements)
** Current wind speed in m/s (hover to see current wind gust speed)